NGN1EK EDDH-EDDF

Flight info

Callsign NGN1EK
Flight time 0h 47m
Altitude 30000
Route AMLUH2C/05 AMLUH M852 DENIX DCT RIMET/N0441F310 T157 KOKEB/N0396F230 T157 KERAX KERAX5A
Aircraft A320/M-SDE3FGHIRWY/LB1

Departure

Time 2026-05-07 14:31
Airport Hamburg Helmut Schmidt Airport (EDDH)

Arrival

Time 2026-05-07 15:18
Airport Frankfurt Main Airport (EDDF)
Time Latitude Longitude Altitude Speed Heading
2026-05-07 14:00 53.63032 10.00349 51 ft 0 kts 122°
2026-05-07 14:25 53.63034 10.00345 51 ft 3 kts 122°
2026-05-07 14:26 53.63047 10.00307 47 ft 4 kts 118°
2026-05-07 14:26 53.63060 10.00267 51 ft 4 kts 116°
2026-05-07 14:26 53.63072 10.00227 48 ft 4 kts 123°
2026-05-07 14:26 53.63089 10.00197 49 ft 4 kts 168°
2026-05-07 14:27 53.63094 10.00195 48 ft 0 kts 180°
2026-05-07 14:29 53.63093 10.00195 48 ft 2 kts 181°
2026-05-07 14:29 53.63045 10.00158 51 ft 11 kts 211°
2026-05-07 14:29 53.62982 10.00091 51 ft 10 kts 212°
2026-05-07 14:30 53.62922 10.00000 51 ft 13 kts 237°
2026-05-07 14:30 53.62878 9.99850 50 ft 16 kts 243°
2026-05-07 14:30 53.62900 9.99715 50 ft 12 kts 331°
2026-05-07 14:30 53.62953 9.99669 49 ft 18 kts 333°
2026-05-07 14:31 53.63301 9.99371 51 ft 91 kts 332°
2026-05-07 14:31 53.64041 9.98732 52 ft 146 kts 334°
2026-05-07 14:31 53.65039 9.97915 304 ft 170 kts 338°
2026-05-07 14:31 53.66147 9.97013 930 ft 182 kts 337°
2026-05-07 14:32 53.67283 9.96036 1735 ft 183 kts 336°
2026-05-07 14:32 53.68454 9.95041 2336 ft 195 kts 342°
2026-05-07 14:32 53.69815 9.94674 2859 ft 205 kts
2026-05-07 14:32 53.71276 9.94687 3513 ft 214 kts
2026-05-07 14:33 53.72668 9.95356 4448 ft 207 kts 39°
2026-05-07 14:33 53.73486 9.97297 5352 ft 207 kts 73°
2026-05-07 14:33 53.73838 9.99692 6163 ft 214 kts 76°
2026-05-07 14:33 53.74073 10.02192 6966 ft 219 kts 89°
2026-05-07 14:34 53.73802 10.04753 7709 ft 230 kts 109°
2026-05-07 14:34 53.73030 10.07227 8305 ft 247 kts 119°
2026-05-07 14:34 53.72141 10.09827 8895 ft 265 kts 119°
2026-05-07 14:34 53.71201 10.12609 9509 ft 280 kts 119°
2026-05-07 14:35 53.70224 10.15512 10258 ft 288 kts 120°
2026-05-07 14:35 53.68978 10.18271 10756 ft 304 kts 137°
2026-05-07 14:35 53.67239 10.20452 11206 ft 320 kts 150°
2026-05-07 14:35 53.65185 10.22011 11608 ft 337 kts 162°
2026-05-07 14:36 53.62881 10.23055 12143 ft 347 kts 165°
2026-05-07 14:36 53.60534 10.24105 12879 ft 351 kts 165°
2026-05-07 14:36 53.58163 10.25206 13633 ft 355 kts 165°
2026-05-07 14:36 53.55768 10.26333 14319 ft 359 kts 165°
2026-05-07 14:37 53.53345 10.27465 14976 ft 363 kts 165°
2026-05-07 14:37 53.48427 10.29733 16265 ft 370 kts 165°
2026-05-07 14:37 53.45930 10.30877 16899 ft 374 kts 165°
2026-05-07 14:38 53.43401 10.32033 17551 ft 378 kts 166°
2026-05-07 14:38 53.40853 10.33191 18202 ft 382 kts 166°
2026-05-07 14:38 53.38277 10.34348 18804 ft 385 kts 166°
2026-05-07 14:38 53.35832 10.35443 19397 ft 388 kts 167°
2026-05-07 14:39 53.34078 10.36228 19829 ft 390 kts 166°
2026-05-07 14:39 53.31481 10.37391 20462 ft 393 kts 166°
2026-05-07 14:39 53.28833 10.38576 21083 ft 396 kts 166°
2026-05-07 14:39 53.26169 10.39770 21667 ft 398 kts 166°
2026-05-07 14:40 53.23478 10.40975 22242 ft 401 kts 166°
2026-05-07 14:40 53.20773 10.42183 22787 ft 404 kts 166°
2026-05-07 14:40 53.18044 10.43396 23335 ft 407 kts 166°
2026-05-07 14:40 53.15297 10.44605 23833 ft 410 kts 168°
2026-05-07 14:41 53.12474 10.45331 24258 ft 411 kts 178°
2026-05-07 14:41 53.09646 10.45269 24687 ft 413 kts 186°
2026-05-07 14:41 53.06777 10.44851 25106 ft 415 kts 186°
2026-05-07 14:41 53.03890 10.44438 25523 ft 418 kts 186°
2026-05-07 14:42 53.00979 10.44032 25934 ft 421 kts 186°
2026-05-07 14:42 52.98055 10.43632 26331 ft 423 kts 185°
2026-05-07 14:42 52.95109 10.43234 26717 ft 426 kts 185°
2026-05-07 14:42 52.93997 10.43085 26862 ft 427 kts 185°
2026-05-07 14:43 52.92298 10.42857 27088 ft 428 kts 185°
2026-05-07 14:43 52.89317 10.42455 27480 ft 431 kts 185°
2026-05-07 14:43 52.86320 10.42047 27865 ft 433 kts 185°
2026-05-07 14:43 52.83304 10.41636 28253 ft 436 kts 185°
2026-05-07 14:44 52.80276 10.41225 28628 ft 438 kts 185°
2026-05-07 14:44 52.77230 10.40813 29000 ft 441 kts 185°
2026-05-07 14:44 52.74163 10.40397 29361 ft 443 kts 185°
2026-05-07 14:44 52.71077 10.39979 29716 ft 446 kts 185°
2026-05-07 14:45 52.67981 10.39562 30028 ft 448 kts 185°
2026-05-07 14:45 52.64873 10.39144 30088 ft 448 kts 185°
2026-05-07 14:45 52.58664 10.38316 30085 ft 447 kts 185°
2026-05-07 14:46 52.52461 10.37487 30086 ft 447 kts 185°
2026-05-07 14:46 52.46263 10.36656 30084 ft 447 kts 186°
2026-05-07 14:47 52.40883 10.36010 30080 ft 447 kts 185°
2026-05-07 14:47 52.34687 10.35162 30082 ft 447 kts 186°
2026-05-07 14:48 52.28494 10.34292 30086 ft 447 kts 186°
2026-05-07 14:48 52.22301 10.33450 30086 ft 446 kts 186°
2026-05-07 14:49 52.16113 10.32639 30084 ft 446 kts 185°
2026-05-07 14:49 52.09927 10.31840 30086 ft 445 kts 186°
2026-05-07 14:50 52.03762 10.31029 30083 ft 445 kts 185°
2026-05-07 14:50 51.97596 10.30219 30079 ft 444 kts 185°
2026-05-07 14:51 51.91439 10.29417 30077 ft 443 kts 185°
2026-05-07 14:51 51.85295 10.28621 30074 ft 443 kts 185°
2026-05-07 14:52 51.80195 10.27957 30074 ft 442 kts 185°
2026-05-07 14:52 51.74081 10.27163 30072 ft 441 kts 185°
2026-05-07 14:53 51.66972 10.26242 30074 ft 441 kts 185°
2026-05-07 14:53 51.61850 10.25583 30071 ft 441 kts 185°
2026-05-07 14:54 51.55727 10.24793 30068 ft 442 kts 185°
2026-05-07 14:54 51.49593 10.24009 30065 ft 442 kts 185°
2026-05-07 14:55 51.43463 10.23230 30064 ft 442 kts 185°
2026-05-07 14:55 51.37326 10.22451 30067 ft 442 kts 184°
2026-05-07 14:56 51.31192 10.21755 30066 ft 442 kts 182°
2026-05-07 14:56 51.25043 10.21574 30056 ft 442 kts 180°
2026-05-07 14:57 51.18893 10.21606 30066 ft 442 kts 180°
2026-05-07 14:57 51.12744 10.21562 30061 ft 442 kts 180°
2026-05-07 14:58 51.06628 10.21442 30060 ft 443 kts 181°
2026-05-07 14:58 51.00462 10.21312 30053 ft 443 kts 181°
2026-05-07 14:59 50.94290 10.21192 30056 ft 444 kts 180°
2026-05-07 14:59 50.88115 10.21082 30058 ft 444 kts 181°
2026-05-07 15:00 50.85050 10.20540 30060 ft 444 kts 195°
2026-05-07 15:00 50.82203 10.18675 30056 ft 445 kts 210°
2026-05-07 15:00 50.79712 10.15789 30058 ft 445 kts 223°
2026-05-07 15:00 50.77590 10.12240 30055 ft 445 kts 231°
2026-05-07 15:01 50.74357 10.03940 30061 ft 444 kts 242°
2026-05-07 15:01 50.71531 9.95309 29324 ft 439 kts 243°
2026-05-07 15:02 50.70164 9.91061 28263 ft 430 kts 243°
2026-05-07 15:02 50.68825 9.86880 27261 ft 424 kts 243°
2026-05-07 15:02 50.67504 9.82759 26300 ft 419 kts 243°
2026-05-07 15:02 50.66197 9.78687 25360 ft 414 kts 243°
2026-05-07 15:03 50.64839 9.74721 24460 ft 409 kts 237°
2026-05-07 15:03 50.63149 9.71149 23572 ft 404 kts 228°
2026-05-07 15:03 50.61143 9.68090 22553 ft 398 kts 219°
2026-05-07 15:03 50.58902 9.65595 21560 ft 393 kts 211°
2026-05-07 15:04 50.56477 9.63679 20599 ft 388 kts 203°
2026-05-07 15:04 50.53997 9.62095 19672 ft 382 kts 207°
2026-05-07 15:04 50.51708 9.60046 18766 ft 376 kts 216°
2026-05-07 15:04 50.49696 9.57498 17829 ft 369 kts 225°
2026-05-07 15:05 50.47993 9.54527 16842 ft 363 kts 234°
2026-05-07 15:05 50.46616 9.51238 15870 ft 358 kts 243°
2026-05-07 15:05 50.45578 9.47724 14953 ft 352 kts 251°
2026-05-07 15:05 50.44848 9.44085 14048 ft 348 kts 255°
2026-05-07 15:06 50.44168 9.40472 13074 ft 343 kts 255°
2026-05-07 15:06 50.43489 9.36908 12109 ft 339 kts 255°
2026-05-07 15:06 50.42813 9.33390 11376 ft 335 kts 255°
2026-05-07 15:06 50.42138 9.29877 11065 ft 337 kts 255°
2026-05-07 15:07 50.41445 9.26381 10812 ft 336 kts 250°
2026-05-07 15:07 50.40254 9.23332 10563 ft 319 kts 227°
2026-05-07 15:07 50.38568 9.21246 10210 ft 302 kts 215°
2026-05-07 15:07 50.36844 9.19489 9814 ft 289 kts 214°
2026-05-07 15:08 50.35165 9.17813 9369 ft 287 kts 214°
2026-05-07 15:08 50.33495 9.16154 8919 ft 280 kts 214°
2026-05-07 15:08 50.31876 9.14552 8475 ft 271 kts 214°
2026-05-07 15:08 50.30323 9.13023 8043 ft 264 kts 214°
2026-05-07 15:09 50.28772 9.11500 7601 ft 257 kts 214°
2026-05-07 15:09 50.27270 9.10028 7178 ft 254 kts 214°
2026-05-07 15:09 50.25774 9.08565 6892 ft 252 kts 214°
2026-05-07 15:09 50.24290 9.07113 6614 ft 250 kts 214°
2026-05-07 15:10 50.22841 9.05626 6390 ft 249 kts 217°
2026-05-07 15:10 50.22077 9.04793 6316 ft 246 kts 217°
2026-05-07 15:10 50.20898 9.03637 6214 ft 239 kts 214°
2026-05-07 15:11 50.19530 9.02184 6084 ft 238 kts 218°
2026-05-07 15:11 50.18207 9.00645 5900 ft 237 kts 219°
2026-05-07 15:11 50.16891 8.99092 5555 ft 237 kts 219°
2026-05-07 15:11 50.15570 8.97548 5237 ft 236 kts 218°
2026-05-07 15:12 50.14265 8.96044 5169 ft 228 kts 218°
2026-05-07 15:12 50.13025 8.94618 5111 ft 215 kts 222°
2026-05-07 15:12 50.12115 8.92889 4980 ft 202 kts 246°
2026-05-07 15:12 50.11613 8.90874 4752 ft 198 kts 252°
2026-05-07 15:13 50.11146 8.88863 4477 ft 197 kts 252°
2026-05-07 15:13 50.10678 8.86865 4230 ft 196 kts 252°
2026-05-07 15:13 50.10214 8.84891 3956 ft 192 kts 252°
2026-05-07 15:13 50.09767 8.82996 3702 ft 181 kts 252°
2026-05-07 15:14 50.09351 8.81230 3470 ft 164 kts 252°
2026-05-07 15:14 50.08974 8.79633 3261 ft 150 kts 252°
2026-05-07 15:14 50.08627 8.78163 3060 ft 141 kts 252°
2026-05-07 15:14 50.08290 8.76733 2862 ft 141 kts 252°
2026-05-07 15:15 50.07951 8.75298 2674 ft 141 kts 252°
2026-05-07 15:15 50.07612 8.73862 2479 ft 141 kts 252°
2026-05-07 15:15 50.07276 8.72422 2279 ft 141 kts 252°
2026-05-07 15:15 50.06961 8.70973 2060 ft 141 kts 254°
2026-05-07 15:16 50.06625 8.69536 1882 ft 142 kts 251°
2026-05-07 15:16 50.06316 8.68298 1673 ft 141 kts 250°
2026-05-07 15:16 50.05964 8.66868 1480 ft 141 kts 250°
2026-05-07 15:16 50.05621 8.65436 1292 ft 140 kts 252°
2026-05-07 15:17 50.05294 8.64023 1111 ft 138 kts 249°
2026-05-07 15:17 50.04955 8.62644 928 ft 135 kts 249°
2026-05-07 15:17 50.04669 8.61459 765 ft 133 kts 249°
2026-05-07 15:17 50.04365 8.60147 602 ft 133 kts 249°
2026-05-07 15:18 50.04073 8.58944 432 ft 131 kts 248°
2026-05-07 15:18 50.03761 8.57625 367 ft 123 kts 251°
2026-05-07 15:18 50.03521 8.56620 358 ft 72 kts 249°
2026-05-07 15:18 50.03395 8.56094 360 ft 45 kts 250°
2026-05-07 15:19 50.03304 8.55657 357 ft 35 kts 270°
2026-05-07 15:19 50.03328 8.55383 356 ft 12 kts 278°
2026-05-07 15:19 50.03339 8.55273 358 ft 12 kts 279°
2026-05-07 15:19 50.03350 8.55178 364 ft 6 kts 281°
2026-05-07 15:20 50.03369 8.55064 362 ft 15 kts 292°
2026-05-07 15:20 50.03398 8.54924 364 ft 8 kts 302°
2026-05-07 15:20 50.03447 8.54848 358 ft 12 kts 330°
2026-05-07 15:20 50.03550 8.54789 360 ft 19 kts 340°
2026-05-07 15:21 50.03657 8.54728 361 ft 13 kts 340°
2026-05-07 15:21 50.03741 8.54722 360 ft 13 kts 27°
2026-05-07 15:21 50.03788 8.54859 362 ft 16 kts 70°
2026-05-07 15:21 50.03833 8.55040 364 ft 19 kts 70°
2026-05-07 15:22 50.03882 8.55256 364 ft 23 kts 70°
2026-05-07 15:22 50.03937 8.55485 360 ft 21 kts 69°
2026-05-07 15:22 50.03992 8.55711 360 ft 23 kts 70°
2026-05-07 15:22 50.04028 8.55864 367 ft 7 kts 70°
2026-05-07 15:23 50.04031 8.55879 366 ft 0 kts 70°
2026-05-07 15:25 50.04031 8.55880 366 ft 1 kts 70°
2026-05-07 15:25 50.04053 8.55970 366 ft 13 kts 69°
2026-05-07 15:25 50.04088 8.56115 361 ft 16 kts 69°
2026-05-07 15:26 50.04129 8.56290 363 ft 19 kts 70°
2026-05-07 15:26 50.04177 8.56492 364 ft 20 kts 70°
2026-05-07 15:26 50.04224 8.56688 361 ft 21 kts 69°
2026-05-07 15:26 50.04278 8.56914 361 ft 24 kts 70°
2026-05-07 15:27 50.04340 8.57171 361 ft 27 kts 69°
2026-05-07 15:27 50.04408 8.57458 363 ft 30 kts 70°
2026-05-07 15:27 50.04471 8.57719 368 ft 27 kts 69°
2026-05-07 15:27 50.04526 8.57951 362 ft 16 kts 70°
2026-05-07 15:28 50.04588 8.58029 362 ft 13 kts 352°
2026-05-07 15:28 50.04683 8.57974 362 ft 14 kts 339°
2026-05-07 15:28 50.04760 8.57977 363 ft 11 kts 45°
2026-05-07 15:28 50.04792 8.58102 367 ft 14 kts 69°
2026-05-07 15:29 50.04819 8.58214 364 ft 9 kts 70°
2026-05-07 15:29 50.04835 8.58282 364 ft 4 kts 73°
2026-05-07 15:29 50.04821 8.58319 364 ft 5 kts 140°
2026-05-07 15:29 50.04791 8.58338 364 ft 3 kts 160°
2026-05-07 15:30 50.04780 8.58344 362 ft 0 kts 160°